CZ-6A DEB, 54616

Orbit data source: Space-Track

CZ-6A DEB, 54616 is space debris in SSO originally from a launch on Fri, 11 Nov 2022 UTC launched from the Taiyaun Space Center, China (TSC). Debris objects in space refer to the collection of defunct objects orbiting the Earth. Examples of debris include non-operational satellites, rocket bodies, and fragments generated from explosions, collisions, or faulty payload assembly.

Loading next visibility...
Identifier
54616, 2022-151NS
Orbit
SSO
Country
Flag of CNCN / PRC
Related business
Manufacturer
SAST
Mission
Spacecraft
Bus & Motor
Unknown
Mass
Unknown
Launch date (UTC)
2022-11-11 (4 years ago)
Launch vehicle
Unknown
Launch site
Taiyaun Space Center, China (TSC)
Object type
Payload
Rocket body
Debris
Shape & HBR
Unknown shape, 0.1 m
Radar Cross Section
Medium (>0.1 m² and <1 m²)

Expand to show TLE details & history
Last TLE update: 15 hours ago

TLE from 15 hours ago
0 CZ-6A DEB
1 54616U 22151NS  26262.95752707  .00000899  00000-0  49017-3 0  9993
2 54616  98.8332 260.7268 0057909  83.2894 277.4865 14.13776720197231
Epoch: 2026-09-19T22:58Z
TLE epoch observation values (Epoch: 2026-09-19T22:58:50.338Z)
Latitude
-0°
Longitude
-82.84155°
Altitude
844.165 km
Speed
7.433 km/s
True Right ascension
17h 22m 54s
True Declination
0° 00' 00"
Sunlit
Object was in daylight at epoch
Visualization orbit readout
Latitude
Unknown
Longitude
Unknown
Altitude
Unknown
Speed
Unknown
Apparent Right ascension
Unknown
Apparent Declination
Unknown
Sunlit
N/A
Visualization observer readout
Local Sidereal Time
07:00:47
Azimuth
Unknown
Elevation
Unknown
Doppler factor
Unknown
Orbital elements
Apogee altitude
885.47 km
Perigee altitude
801.829 km
Semi-major axis
7,221.786 km
Eccentricity
0.00579
Inclination
98.8332°
RAAN
260.7268°
Arg. of periapsis
83.2894°
True anomaly
276.82796°
Mean anomaly
277.4865°
Eccentric anomaly
277.15729°
Mean motion
3.53652 °/min
Orbital period
101.79 mins
BSTAR
0.00049017
Loading maneuver chart data...
Computing Atmospheric mass density...
Loading historical data...
Loading historical data...
Loading historical data...
Loading historical data...
Loading historical data...
Loading historical data...
Loading historical data...

Documentation

Showing up to 5 results
|